Location: Deardoffs Mills (historical)
(40.6353°N, 81.5590°W)
Time: 14:52:29
(UTC+00:00)

ISS - Visible Passes

Search period start: 29 September 2022 00:00
Search period end: 09 October 2022 00:00
Orbit: 414 x 417 km, 51.6° (Epoch: 29 September)

Date Brightness Start Highest point End Pass type
(mag) Time Alt. Az. Time Alt. Az. Time Alt. Az.
29 Sep -1.2 01:33:53 10° NW 01:35:02 19° NW 01:35:02 19° NW visible
30 Sep -2.5 00:45:16 10° NW 00:48:12 29° NNE 00:48:12 29° NNE visible
30 Sep -2.0 23:56:39 10° NNW 23:59:21 21° NNE 00:01:23 13° ENE visible
01 Oct -1.2 01:33:00 10° WNW 01:34:16 21° WNW 01:34:16 21° WNW visible
02 Oct -3.8 00:44:12 10° NW 00:47:30 66° NNE 00:47:30 66° NNE visible
02 Oct -3.1 23:55:28 10° NW 23:58:40 40° NNE 00:00:48 18° E visible
03 Oct -0.9 01:32:28 10° WNW 01:33:41 17° W 01:33:41 17° W visible
04 Oct -2.9 00:43:18 10° WNW 00:46:30 43° SW 00:47:04 38° SSW visible
04 Oct -3.7 23:54:19 10° NW 23:57:40 79° SW 00:00:33 13° SE visible
06 Oct -1.0 00:43:04 10° W 00:45:08 15° SW 00:47:05 10° SSW visible
06 Oct -1.7 23:53:29 10° WNW 23:56:22 27° SW 23:59:14 10° SSE visible
